Location: Brompton
(51.4000°N, 0.5333°E)
Time: 16:41:32
(UTC+00:00)

Cosmos 1943 Rocket - Pass Details

Date: 11 May 2021
Orbit: 814 x 842 km, 71.0° (Epoch: 24 June)

Event Time Altitude Azimuth Distance (km) Brightness Sun altitude
Exits shadow 22:13:50 28° 143° (SE) 1,526 3.0 -17.1°
Maximum altitude 22:15:39 35° 107° (ESE) 1,329 2.9 -17.2°
Drops below altitude 10° 22:20:40 10° 44° (NE) 2,445 4.9 -17.5°
Sets 22:23:16 0° 36° (NE) 3,378 5.8 -17.7°
